| time (UTC) | temp F | wind direction | speed MPH | gust MPH | rain 1hr in | rain 24hr in | rain mn in | humidity % | barometer mb |
| 20260906001507 | 48 | 155 | 1.0 | 3.0 | 0.00 | 0.13 | 0.01 | 98 | 1009.2 |
| 20260906000014 | 48 | 138 | 2.0 | 3.0 | 0.00 | 0.13 | 0.01 | 98 | 1009.0 |
| 20260905234508 | 47 | 136 | 2.0 | 3.0 | 0.00 | 0.13 | 0.01 | 97 | 1008.8 |
| 20260905233022 | 48 | 140 | 1.0 | 3.0 | 0.00 | 0.13 | 0.01 | 97 | 1008.7 |
| 20260905231508 | 49 | 121 | 0.0 | 3.0 | 0.00 | 0.13 | 0.01 | 97 | 1008.5 |
| 20260905230110 | 49 | 135 | 1.0 | 3.0 | 0.01 | 0.13 | 0.01 | 97 | 1008.3 |
| 20260905224611 | 49 | 111 | 1.0 | 3.0 | 0.01 | 0.13 | 0.01 | 97 | 1008.2 |
| 20260905223009 | 49 | 116 | 0.0 | 0.0 | 0.01 | 0.13 | 0.01 | 97 | 1007.9 |
| 20260905221512 | 50 | 136 | 0.0 | 0.0 | 0.01 | 0.13 | 0.01 | 97 | 1007.7 |
| 20260905220009 | 50 | 110 | 0.0 | 0.0 | 0.00 | 0.13 | 0.00 | 97 | 1007.5 |
| 20260905214510 | 50 | 126 | 0.0 | 0.0 | 0.00 | 0.13 | 0.13 | 96 | 1007.3 |
| 20260905213011 | 50 | 143 | 0.0 | 0.0 | 0.00 | 0.13 | 0.13 | 96 | 1007.0 |
| 20260905211510 | 51 | 140 | 0.0 | 0.0 | 0.00 | 0.13 | 0.13 | 96 | 1006.8 |
| 20260905210109 | 51 | 138 | 0.0 | 0.0 | 0.00 | 0.13 | 0.13 | 96 | 1006.5 |
| 20260905204609 | 51 | 138 | 0.0 | 0.0 | 0.00 | 0.13 | 0.13 | 96 | 1006.0 |
| 20260905203011 | 51 | 84 | 0.0 | 0.0 | 0.00 | 0.13 | 0.13 | 95 | 1005.8 |
| 20260905201608 | 51 | 84 | 0.0 | 2.0 | 0.00 | 0.13 | 0.13 | 95 | 1005.6 |
| 20260905200014 | 52 | 103 | 0.0 | 0.0 | 0.00 | 0.13 | 0.13 | 95 | 1005.4 |
| 20260905194607 | 52 | 60 | 0.0 | 0.0 | 0.00 | 0.13 | 0.13 | 94 | 1005.1 |
| 20260905193022 | 52 | 95 | 0.0 | 0.0 | 0.00 | 0.13 | 0.13 | 93 | 1004.9 |
| 20260905191509 | 52 | 161 | 2.0 | 3.0 | 0.00 | 0.13 | 0.13 | 92 | 1004.6 |
| 20260905190015 | 53 | 305 | 0.0 | 0.0 | 0.00 | 0.13 | 0.13 | 91 | 1004.6 |
| 20260905184618 | 54 | 305 | 0.0 | 0.0 | 0.00 | 0.13 | 0.13 | 90 | 1004.3 |
| 20260905183017 | 55 | 305 | 0.0 | 0.0 | 0.00 | 0.13 | 0.13 | 89 | 1004.1 |
| 20260905181513 | 56 | 305 | 0.0 | 0.0 | 0.00 | 0.13 | 0.13 | 88 | 1004.0 |
| 20260905180013 | 56 | 305 | 0.0 | 0.0 | 0.00 | 0.13 | 0.13 | 88 | 1003.8 |
| 20260905174624 | 56 | 305 | 0.0 | 0.0 | 0.00 | 0.13 | 0.13 | 87 | 1003.5 |
| 20260905173011 | 57 | 311 | 1.0 | 3.0 | 0.00 | 0.13 | 0.13 | 87 | 1003.2 |
| 20260905171507 | 57 | 303 | 2.0 | 6.0 | 0.00 | 0.13 | 0.13 | 85 | 1003.0 |
| 20260905170010 | 58 | 284 | 4.0 | 7.0 | 0.00 | 0.13 | 0.13 | 82 | 1002.7 |
| 20260905164510 | 59 | 291 | 5.0 | 8.0 | 0.00 | 0.13 | 0.13 | 81 | 1002.5 |
| 20260905163010 | 59 | 305 | 4.0 | 6.0 | 0.00 | 0.13 | 0.13 | 78 | 1002.3 |
| 20260905161509 | 60 | 256 | 3.0 | 8.0 | 0.00 | 0.13 | 0.13 | 80 | 1002.1 |
| 20260905160022 | 59 | 265 | 4.0 | 6.0 | 0.00 | 0.13 | 0.13 | 80 | 1002.1 |
| 20260905154509 | 60 | 236 | 6.0 | 9.0 | 0.00 | 0.13 | 0.13 | 79 | 1001.9 |
| 20260905153012 | 60 | 254 | 6.0 | 10.0 | 0.00 | 0.13 | 0.13 | 78 | 1001.6 |
| 20260905151607 | 60 | 236 | 6.0 | 9.0 | 0.00 | 0.13 | 0.13 | 79 | 1001.5 |
| 20260905150020 | 61 | 232 | 7.0 | 11.0 | 0.00 | 0.13 | 0.13 | 80 | 1001.3 |
| 20260905144615 | 60 | 280 | 6.0 | 9.0 | 0.00 | 0.13 | 0.13 | 81 | 1001.3 |
| 20260905143018 | 59 | 289 | 5.0 | 7.0 | 0.00 | 0.13 | 0.13 | 83 | 1001.2 |
| 20260905141509 | 59 | 275 | 4.0 | 8.0 | 0.00 | 0.13 | 0.13 | 83 | 1001.0 |
| 20260905140012 | 59 | 254 | 5.0 | 9.0 | 0.00 | 0.13 | 0.13 | 83 | 1000.9 |
| 20260905134615 | 60 | 239 | 5.0 | 9.0 | 0.00 | 0.13 | 0.13 | 85 | 1001.0 |
| 20260905133012 | 60 | 213 | 5.0 | 7.0 | 0.00 | 0.13 | 0.13 | 86 | 1000.9 |
| 20260905131508 | 59 | 232 | 7.0 | 10.0 | 0.00 | 0.13 | 0.13 | 85 | 1000.8 |
| 20260905130009 | 58 | 230 | 5.0 | 8.0 | 0.00 | 0.13 | 0.13 | 86 | 1000.7 |
| 20260905124508 | 58 | 255 | 6.0 | 8.0 | 0.00 | 0.13 | 0.13 | 84 | 1000.6 |
| 20260905123012 | 58 | 244 | 5.0 | 11.0 | 0.00 | 0.13 | 0.13 | 83 | 1000.4 |
| 20260905121509 | 59 | 286 | 4.0 | 7.0 | 0.00 | 0.13 | 0.13 | 81 | 1000.3 |
| 20260905120010 | 60 | 296 | 2.0 | 6.0 | 0.00 | 0.13 | 0.13 | 81 | 1000.2 |
| 20260905114508 | 59 | 304 | 2.0 | 8.0 | 0.00 | 0.13 | 0.13 | 84 | 1000.1 |
| 20260905113008 | 59 | 245 | 7.0 | 10.0 | 0.00 | 0.13 | 0.13 | 83 | 1000.1 |
| 20260905111508 | 59 | 267 | 6.0 | 8.0 | 0.00 | 0.13 | 0.13 | 81 | 1000.0 |
| 20260905110013 | 59 | 284 | 3.0 | 9.0 | 0.00 | 0.13 | 0.13 | 85 | 999.9 |
| 20260905104508 | 59 | 269 | 6.0 | 12.0 | 0.00 | 0.13 | 0.13 | 88 | 999.6 |
| 20260905103006 | 58 | 247 | 4.0 | 9.0 | 0.01 | 0.13 | 0.13 | 95 | 999.6 |
| 20260905100123 | 56 | 315 | 2.0 | 5.0 | 0.01 | 0.13 | 0.13 | 98 | 999.5 |
| 20260905094625 | 55 | 297 | 4.0 | 6.0 | 0.01 | 0.13 | 0.13 | 97 | 999.5 |
| 20260905093007 | 55 | 283 | 4.0 | 7.0 | 0.00 | 0.12 | 0.12 | 98 | 999.4 |
| 20260905091510 | 54 | 273 | 6.0 | 8.0 | 0.00 | 0.12 | 0.12 | 98 | 999.3 |
| 20260905090007 | 54 | 249 | 4.0 | 6.0 | 0.00 | 0.12 | 0.12 | 98 | 999.2 |
| 20260905084514 | 54 | 256 | 4.0 | 6.0 | 0.00 | 0.16 | 0.12 | 98 | 999.1 |
| 20260905083009 | 54 | 227 | 3.0 | 7.0 | 0.00 | 0.16 | 0.12 | 98 | 998.9 |
| 20260905081508 | 54 | 248 | 5.0 | 7.0 | 0.00 | 0.16 | 0.12 | 99 | 998.8 |
| 20260905080012 | 54 | 224 | 5.0 | 8.0 | 0.00 | 0.16 | 0.12 | 99 | 998.6 |
| 20260905074607 | 53 | 232 | 4.0 | 7.0 | 0.00 | 0.22 | 0.12 | 99 | 998.5 |
| 20260905073110 | 53 | 250 | 4.0 | 7.0 | 0.00 | 0.22 | 0.12 | 99 | 998.5 |
| 20260905071510 | 53 | 219 | 3.0 | 6.0 | 0.00 | 0.22 | 0.12 | 99 | 998.4 |
| 20260905070012 | 52 | 218 | 1.0 | 4.0 | 0.01 | 0.22 | 0.12 | 99 | 998.3 |
| 20260905064507 | 52 | 243 | 3.0 | 5.0 | 0.01 | 0.23 | 0.12 | 99 | 998.2 |
| 20260905063007 | 51 | 220 | 1.0 | 4.0 | 0.01 | 0.23 | 0.12 | 99 | 998.1 |
| 20260905061508 | 51 | 223 | 2.0 | 5.0 | 0.02 | 0.23 | 0.12 | 99 | 997.9 |
| 20260905060015 | 51 | 188 | 1.0 | 5.0 | 0.03 | 0.22 | 0.11 | 99 | 997.7 |
| 20260905054508 | 51 | 97 | 0.0 | 3.0 | 0.03 | 0.24 | 0.11 | 99 | 997.5 |
| 20260905053107 | 51 | 157 | 0.0 | 0.0 | 0.03 | 0.24 | 0.11 | 99 | 997.5 |
| 20260905051509 | 51 | 190 | 1.0 | 3.0 | 0.02 | 0.22 | 0.09 | 98 | 997.5 |
| 20260905050006 | 51 | 196 | 2.0 | 4.0 | 0.00 | 0.20 | 0.08 | 98 | 997.4 |
| 20260905044508 | 51 | 191 | 0.0 | 0.0 | 0.00 | 0.20 | 0.08 | 99 | 997.2 |
| 20260905043011 | 51 | 182 | 1.0 | 4.0 | 0.00 | 0.20 | 0.08 | 98 | 997.0 |
| 20260905041607 | 51 | 192 | 0.0 | 0.0 | 0.00 | 0.20 | 0.08 | 98 | 997.0 |
| 20260905040017 | 51 | 193 | 1.0 | 3.0 | 0.00 | 0.20 | 0.08 | 98 | 996.8 |
| 20260905034511 | 51 | 223 | 0.0 | 1.0 | 0.00 | 0.21 | 0.08 | 98 | 996.8 |
| 20260905033025 | 51 | 196 | 0.0 | 0.0 | 0.00 | 0.21 | 0.08 | 98 | 996.6 |
| 20260905031507 | 51 | 221 | 0.0 | 0.0 | 0.00 | 0.21 | 0.08 | 98 | 996.5 |
| 20260905030010 | 51 | 221 | 0.0 | 0.0 | 0.00 | 0.21 | 0.08 | 98 | 996.3 |
| 20260905024607 | 51 | 213 | 0.0 | 0.0 | 0.01 | 0.21 | 0.08 | 98 | 996.2 |
| 20260905023029 | 51 | 184 | 0.0 | 0.0 | 0.01 | 0.21 | 0.08 | 98 | 996.1 |
| 20260905021607 | 51 | 117 | 0.0 | 0.0 | 0.03 | 0.21 | 0.08 | 98 | 995.9 |
| 20260905020021 | 51 | 117 | 0.0 | 0.0 | 0.08 | 0.21 | 0.08 | 98 | 995.8 |
| 20260905014510 | 51 | 119 | 0.0 | 0.0 | 0.07 | 0.20 | 0.07 | 98 | 995.6 |
| 20260905013010 | 51 | 119 | 0.0 | 0.0 | 0.07 | 0.20 | 0.07 | 98 | 995.7 |
| 20260905011507 | 51 | 82 | 0.0 | 0.0 | 0.04 | 0.17 | 0.04 | 98 | 995.7 |
| 20260905010110 | 51 | 67 | 0.0 | 0.0 | 0.00 | 0.13 | 0.00 | 98 | 995.6 |
| 20260905004514 | 50 | 67 | 0.0 | 0.0 | 0.00 | 0.13 | 0.00 | 98 | 995.6 |